Regional Weather Roundup
Issued by NWS

Home | Current Version | Previous Version | Graphics & Text | Print | Product List | Glossary On
Versions: 1 2 3 4 5 6 7 8 9 10 11 12 13 14 15 16 17 18 19 20 21 22 23 24 25 26 27 28 29 30 31 32 33 34 35 36 37 38 39 40 41 42 43 44 45 46 47 48 49 50
000
ASUS45 KCYS 291310
RWRWY

WYOMING REGIONAL WEATHER ROUNDUP
NATIONAL WEATHER SERVICE CHEYENNE WY
700 AM MDT MON SEP 29 2014

NOTE:  "FAIR" INDICATES FEW OR NO CLOUDS BELOW 12,000 FEET
WITH NO SIGNIFICANT WEATHER AND/OR OBSTRUCTIONS TO VISIBILITY.

WYZ001-291400-
YELLOWSTONE NATIONAL PARK

CITY           SKY/WX    TMP DP  RH WIND       PRES   REMARKS
LK YELLOWSTONE   N/A     37  35  92 NW3       30.07F
W YELLOWSTONE  NOT AVBL

$$
WYZ002>013-054>058-071-098>099-291400-
NORTHERN WYOMING

CITY           SKY/WX    TMP DP  RH WIND       PRES   REMARKS
JACKSON        CLOUDY    43  41  93 CALM      30.03S FOG
CODY           CLOUDY    45  45 100 CALM      30.03F
GREYBULL       LGT RAIN  48  47  96 W8        30.02R
WORLAND        CLOUDY    47  46  97 W5        30.02F
SHERIDAN       CLOUDY    48  46  93 NE5       30.01F
BUFFALO        CLOUDY    46  45  96 SE6       30.03S FOG
GILLETTE       CLOUDY    49  48  97 SE5       30.03F
HULETT         RAIN      46  45  93 E13       30.06
NEWCASTLE      CLOUDY    50  50 100 SE6       30.05

$$
WYZ014>020-022>026-101>103-291400-
CENTRAL WYOMING

CITY           SKY/WX    TMP DP  RH WIND       PRES   REMARKS
BIG PINEY      CLOUDY    42  40  92 S3        30.04F
PINEDALE       CLOUDY    43  41  93 SE10      30.05F
DUBOIS         CLOUDY    39  39 100 SE10      30.04F WCI  32
LANDER         CLOUDY    46  45  96 CALM      30.03S
RIVERTON       CLOUDY    45  45 100 E6        30.04F FOG
CASPER         MOCLDY    44  43  96 N5        30.03F
DOUGLAS        CLOUDY    47  46  97 CALM      30.06R

$$
WYZ021-027>030-104>119-291400-
SOUTHERN WYOMING

CITY           SKY/WX    TMP DP  RH WIND       PRES   REMARKS
EVANSTON       MOCLDY    38  36  92 W3        30.05R
KEMMERER       PTSUNNY   37  36  93 NW3       30.05S
FORT BRIDGER   PTSUNNY   40  40 100 SE3       30.08S
ROCK SPRINGS   CLOUDY    42  39  89 SE12      30.06S
DIXON          PTSUNNY   44  40  88 E5        30.10S
RAWLINS        MOCLDY    38  36  92 E3        30.08F
SARATOGA         N/A     45  41  87 S14G20    30.10S
LARAMIE        MOCLDY    44  41  89 NW8       30.09F
CHEYENNE       CLOUDY    48  46  93 NE6       30.05F
TORRINGTON     CLOUDY    51  49  92 W6        30.06R
PINE BLUFFS    PTSUNNY   48  46  93 N10       30.06F THUNDER

$$


USA.gov is the U.S. government's official web portal to all federal, state and local government web resources and services.